SL-19 DEB, 23480

Orbit data source: Space-Track

SL-19 DEB, 23480 is space debris in LEO originally from a launch on Mon, 26 Dec 1994 UTC launched from the Tyuratam Missile And Space Complex (TTMTR). Debris objects in space refer to the collection of defunct objects orbiting the Earth. Examples of debris include non-operational satellites, rocket bodies, and fragments generated from explosions, collisions, or faulty payload assembly.

Loading next visibility...
Identifier
23480, 1994-085D
Orbit
LEO
Country
Flag of CISCIS
Related business
Manufacturer
Unknown
Mission
Spacecraft
Bus & Motor
Unknown
Mass
Unknown
Launch date (UTC)
1994-12-26 (31 years ago)
Launch vehicle
Unknown
Launch site
Tyuratam Missile And Space Complex (TTMTR)
Object type
Payload
Rocket body
Debris
Shape & HBR
Unknown shape, 0.2 m
Radar Cross Section
Medium (>0.1 m² and <1 m²)

Expand to show TLE details & history
Last TLE update: 14 hours ago

TLE from 14 hours ago
0 SL-19 DEB
1 23480U 94085D   26062.23364653  .00000647  00000-0  15481-1 0  9998
2 23480  64.7054 302.8028 0212668 156.0679 296.6653 11.46067299565184
Epoch: 2026-03-03T05:36Z
TLE epoch observation values (Epoch: 2026-03-03T05:36:27.060Z)
Latitude
64.80448°
Longitude
148.91455°
Altitude
1,865.722 km
Speed
6.993 km/s
True Right ascension
02h 16m 10s
True Declination
64° 41' 23"
Sunlit
Object was in daylight at epoch
Visualization orbit readout
Latitude
Unknown
Longitude
Unknown
Altitude
Unknown
Speed
Unknown
Apparent Right ascension
Unknown
Apparent Declination
Unknown
Sunlit
N/A
Visualization observer readout
Local Sidereal Time
23:31:34
Azimuth
Unknown
Elevation
Unknown
Doppler factor
Unknown
Orbital elements
Apogee altitude
2,107.255 km
Perigee altitude
1,753.856 km
Semi-major axis
8,308.692 km
Eccentricity
0.02127
Inclination
64.7054°
RAAN
302.8028°
Arg. of periapsis
156.0679°
True anomaly
294.46176°
Mean anomaly
296.6653°
Eccentric anomaly
295.56611°
Mean motion
2.86579 °/min
Orbital period
125.62 mins
BSTAR
0.015481
Loading maneuver chart data...
Computing Atmospheric mass density...
Loading historical data...
Loading historical data...
Loading historical data...
Loading historical data...
Loading historical data...
Loading historical data...
Loading historical data...

Documentation

Showing up to 5 results
|